Powrót do katalogu

SIT-HSE

AktywnyNaukaSSO
NORAD 61763·PAYLOAD·🇷🇺 Russia

Wystrzelony Nov 4, 2024 z Vostochny Cosmodrome

Loading…

Następne Przeloty (najbliższe 24 godziny)

TLE

ŚwieżeSource: Space-Track

Epoka: Sep 14, 2026, 10:51 UTC

1 61763U 24199AE  26257.45233954  .00038677  00000-0  49681-3 0  9997
2 61763  97.2793 135.4977 0002363 344.1216  15.9966 15.59014932151465

Śledź SIT-HSE w czasie rzeczywistym z AllMySat

Download on the App Store